STARLINK-11352, 62880

Orbit data source: Space-Track

STARLINK-11352, 62880 is a payload satellite owned by SpaceX/Seattle (US) in LEO that was launched on Tue, 04 Feb 2025 UTC via an FALCON 9 launch vehicle from the Air Force Eastern Test Range (AFETR). Payload-class satellites include a variety of spacecraft equipped with specific instruments for various scientific and technological missions. These include communications satellites like Starlink; space stations such as the ISS; scientific satellites like the Hubble; Earth observation satellites from companies like Planet Labs, Umbra, and HawkEye 360; GPS; miniature CubeSats for education and research; and military/defense satellites.

Loading next visibility...
Identifier
62880, 2025-024B
Orbit
LEO
Country
Flag of USUS
Related business
Manufacturer
SpaceX/Seattle
Mission
Operational Commercial Communications
Bus & Motor
STARLINK V2MD, Unknown motor
Mass
960 kg wet, ~910 kg dry
Launch date (UTC)
2025-02-04 (1 year ago)
Launch vehicle
FALCON 9
Launch site
Air Force Eastern Test Range (AFETR)
Object type
Payload
Rocket body
Debris
Shape & HBR
Box + 2 Pan, 18.1 m
Radar Cross Section
36.964 m², Large (>1 m²)

Expand to show TLE details & history
Last TLE update: 16 hours ago

TLE from 16 hours ago
0 STARLINK-11352
1 62880U 25024B   26129.82165569  .00189133  00000-0  14288-2 0  9999
2 62880  43.0010 172.7434 0002103 296.4687  63.5965 15.71094566 73086
Epoch: 2026-05-09T19:43Z
TLE epoch observation values (Epoch: 2026-05-09T19:43:11.051Z)
Latitude
-0.00002°
Longitude
9.31375°
Altitude
354.909 km
Speed
7.698 km/s
True Right ascension
11h 30m 58s
True Declination
0° 00' 00"
Sunlit
Object was in full shadow at epoch
Visualization orbit readout
Latitude
Unknown
Longitude
Unknown
Altitude
Unknown
Speed
Unknown
Apparent Right ascension
Unknown
Apparent Declination
Unknown
Sunlit
N/A
Visualization observer readout
Local Sidereal Time
19:37:27
Azimuth
Unknown
Elevation
Unknown
Doppler factor
Unknown
Orbital elements
Apogee altitude
359.166 km
Perigee altitude
356.333 km
Semi-major axis
6,735.886 km
Eccentricity
0.00021
Inclination
43.001°
RAAN
172.7434°
Arg. of periapsis
296.4687°
True anomaly
63.61809°
Mean anomaly
63.5965°
Eccentric anomaly
63.60729°
Mean motion
3.92601 °/min
Orbital period
91.7 mins
BSTAR
0.0014288
Loading maneuver chart data...
Computing Atmospheric mass density...
Loading historical data...
Loading historical data...
Loading historical data...
Loading historical data...
Loading historical data...
Loading historical data...
Loading historical data...

Documentation

Showing up to 5 results
|